Greensboro, NC

5:32 AM EDT on May 25, 2018 (GMT -0400)
Piedmont Triad International

Weather History for KGSO - September, 2012

Change the Weather History Date:

Friday, September 14, 2012

  Actual Average Record
Temperature  
Mean Temperature 71 °F 71 °F  
Max Temperature 82 °F 80 °F 95 °F (1927)
Min Temperature 59 °F 61 °F 39 °F (1985)
Degree Days  
Heating Degree Days 0 1  
Month to date heating degree days 0 2  
Since 1 July heating degree days 0 3  
Cooling Degree Days 6 6  
Month to date cooling degree days 133 115  
Year to date cooling degree days 1552 1377  
Growing Degree Days 20 (Base 50)    
Moisture  
Dew Point 59 °F    
Average Humidity 66    
Maximum Humidity 87    
Minimum Humidity 45    
Precipitation  
Precipitation 0.00 in 0.15 in 3.78 in (2000)
Month to date precipitation 1.42 2.12  
Year to date precipitation 28.16 30.91  
Sea Level Pressure  
Sea Level Pressure 30.22 in    
Wind  
Wind Speed 2 mph (NNE)    
Max Wind Speed 8 mph    
Max Gust Speed 9 mph    
Visibility 10 miles    
Events      
T = Trace of Precipitation, MM = Missing Value Source: NWS Daily Summary

Daily Weather History Graph

Daily Weather History Graph

Search for Another Location

Airport or City:

Astronomy

Sep. 14, 2012 Rise Set
Actual Time 7:01 AM EDT 7:27 PM EDT
Civil Twilight 6:36 AM EDT 7:53 PM EDT
Nautical Twilight 6:05 AM EDT 8:23 PM EDT
Astronomical Twilight 5:34 AM EDT 8:54 PM EDT
Moon 5:25 AM EDT (9/14) 6:23 PM EDT (9/14)
Length of Visible Light 13h 17m
Length of Day
12h 25m
Waning Crescent, 3% of the Moon is Illuminated
Sep 14
Waning Crescent
Sep 15
New
Sep 22
First Quarter
Sep 29
Full
Oct 8
Last Quarter

Hourly Weather History & Observations

Time (EDT) Temp. Heat Index Dew Point Humidity Pressure Visibility Wind Dir Wind Speed Gust Speed Precip Events Conditions
12:54 AM 62.1 °F - 57.0 °F 84% 30.27 in 10.0 mi Calm Calm - N/A   Clear
1:54 AM 62.1 °F - 57.0 °F 84% 30.27 in 10.0 mi Calm Calm - N/A   Clear
2:54 AM 60.1 °F - 55.0 °F 83% 30.27 in 10.0 mi Calm Calm - N/A   Mostly Cloudy
3:54 AM 61.0 °F - 54.0 °F 78% 30.25 in 10.0 mi NNE 3.5 mph - N/A   Mostly Cloudy
4:54 AM 60.1 °F - 53.1 °F 78% 30.25 in 10.0 mi Calm Calm - N/A   Partly Cloudy
5:54 AM 59.0 °F - 54.0 °F 83% 30.24 in 10.0 mi Calm Calm - N/A   Partly Cloudy
6:12 AM 59.0 °F - 53.6 °F 82% 30.26 in 10.0 mi Calm Calm - N/A   Mostly Cloudy
6:42 AM 60.8 °F - 53.6 °F 77% 30.27 in 10.0 mi NE 4.6 mph - N/A   Overcast
6:54 AM 60.1 °F - 54.0 °F 80% 30.25 in 10.0 mi NNE 3.5 mph - N/A   Overcast
7:49 AM 60.8 °F - 55.4 °F 82% 30.27 in 10.0 mi NNE 3.5 mph - N/A   Overcast
7:54 AM 62.1 °F - 55.9 °F 80% 30.25 in 10.0 mi NNE 3.5 mph - N/A   Overcast
8:54 AM 64.0 °F - 60.1 °F 87% 30.25 in 8.0 mi Calm Calm - N/A   Mostly Cloudy
9:47 AM 68.0 °F - 62.6 °F 83% 30.28 in 10.0 mi Variable 3.5 mph - N/A   Partly Cloudy
9:54 AM 66.9 °F - 63.0 °F 87% 30.26 in 10.0 mi NNW 3.5 mph - N/A   Partly Cloudy
10:54 AM 68.0 °F - 64.0 °F 87% 30.26 in 10.0 mi NNE 4.6 mph - N/A   Mostly Cloudy
11:11 AM 69.8 °F - 64.4 °F 83% 30.27 in 10.0 mi Variable 3.5 mph - N/A   Partly Cloudy
11:54 AM 73.0 °F - 64.0 °F 73% 30.24 in 10.0 mi Calm Calm - N/A   Partly Cloudy
12:54 PM 75.9 °F - 61.0 °F 60% 30.23 in 10.0 mi WNW 3.5 mph - N/A   Scattered Clouds
1:54 PM 78.1 °F - 61.0 °F 56% 30.20 in 10.0 mi Variable 3.5 mph - N/A   Scattered Clouds
2:54 PM 81.0 °F 81.6 °F 60.1 °F 49% 30.18 in 10.0 mi North 3.5 mph - N/A   Scattered Clouds
3:54 PM 79.0 °F - 60.1 °F 52% 30.16 in 10.0 mi East 4.6 mph - N/A   Scattered Clouds
4:54 PM 79.0 °F - 57.0 °F 47% 30.15 in 10.0 mi Calm Calm - N/A   Scattered Clouds
5:54 PM 81.0 °F 81.1 °F 57.9 °F 45% 30.15 in 10.0 mi North 4.6 mph - N/A   Scattered Clouds
6:54 PM 75.9 °F - 61.0 °F 60% 30.17 in 10.0 mi SE 4.6 mph - N/A   Scattered Clouds
7:54 PM 72.0 °F - 61.0 °F 68% 30.15 in 10.0 mi SE 4.6 mph - N/A   Partly Cloudy
8:54 PM 70.0 °F - 61.0 °F 73% 30.16 in 10.0 mi Calm Calm - N/A   Clear
9:54 PM 70.0 °F - 62.1 °F 76% 30.16 in 10.0 mi Calm Calm - N/A   Clear
10:54 PM 68.0 °F - 61.0 °F 78% 30.16 in 10.0 mi Calm Calm - N/A   Clear
11:54 PM 66.9 °F - 62.1 °F 84% 30.16 in 10.0 mi Calm Calm - N/A   Clear